Regional Weather Roundup
Issued by NWS New Orleans/Baton Rouge, LA

Home | Current Version | Previous Version | Text Only | Print | Product List | Glossary Off
Versions: 1 2 3 4 5 6 7 8 9 10 11 12 13 14 15 16 17 18 19 20 21 22 23 24 25 26 27 28 29 30 31 32 33 34 35 36 37 38 39 40 41 42 43 44 45 46 47 48 49 50

339
ASUS44 KLIX 201910
RWRLIX
NEW ORLEANS REGIONAL WEATHER ROUNDUP
NATIONAL WEATHER SERVICE NEW ORLEANS LA
100 PM CST SAT DEC 20 2014

NOTE: "FAIR" INDICATES FEW OR NO CLOUDS BELOW 12,000 FEET WITH NO
      SIGNIFICANT WEATHER AND/OR OBSTRUCTIONS TO VISIBILITY.
      SKY/WX - SKY CONDITION AND SIGNIFICANT WEATHER.
      TMP - AIR TEMPERATURE.     DP    - DEWPOINT TEMPERATURE.
      RH  - RELATIVE HUMIDITY.   PRES  - PRESSURE.
      HI  - HEAT INDEX.          WCI   - WIND CHILL INDEX.

*  THESE STATIONS ARE NOT NWS OR FAA STATIONS AND ARE NOT UNDER
   NWS QUALITY CONTROL.

LAZ038-040-048-061>063-065>067-069-202000-
SOUTHEAST LOUISIANA

CITY           SKY/WX    TMP DP  RH WIND       PRES   REMARKS
N.O. AUDUBON   NOT AVBL
N.O. INTL ARPT CLOUDY    53  48  83 N14       30.11F
N.O. LAKEFRONT CLOUDY    55  48  77 N13       30.12F
N.O. DOWNTOWN* CLOUDY    54  45  71 N8        30.12F
SLIDELL        CLOUDY    54  47  77 N13       30.11F
BATON ROUGE    CLOUDY    50  46  86 NE10      30.14F
BOOTHVILLE     CLOUDY    55  52  89 NE12      30.09F
BELLE CHASSE   CLOUDY    55  49  80 N9        30.10F
BOGALUSA*        N/A     51  46  82 N8        30.16F
GALLIANO*      CLOUDY    56  52  86 MISG      30.10F
NEW ROADS*     CLOUDY    50  47  89 N8        30.16F
GONZALES*      CLOUDY    50  50  99 N7        30.13F
HAMMOND*       NOT AVBL
HOUMA*         CLOUDY    52  50  93 N12       30.11F
PORT FOURCHON* CLOUDY    55  52  88 NE17      30.11F

$$

MSZ070-080>082-202000-
SOUTHERN MISSISSIPPI

CITY           SKY/WX    TMP DP  RH WIND       PRES   REMARKS
MCCOMB         CLOUDY    48  44  86 N8        30.15F
GULFPORT       CLOUDY    52  47  83 N12       30.10F
BILOXI         CLOUDY    52  50  91 NE12      30.10F
PASCAGOULA     CLOUDY    51  48  89 N14       30.10F
STENNIS ARPT*  CLOUDY    54  46  76 N7        30.11F

$$

COASTAL OBSERVATIONS
LAKE AND NEARSHORE STATIONS

STATION/POSITION TIME  TEMP    WIND        PRES    WAVE
                       AIR SEA DIR/SP/G            HT/PER
                 (UTC) (F)     (DEG/KT/KT) (MB)    (FT/S)
PASCAGOULA       1900   53      30/  9/ 14 1018.4
WAVELAND YACHT   1900   52      10/ 12/ 14 1018.5
GRAND ISLE       1900   54 60   40/ 10/ 12 1019.2
SOUTHWEST PASS   1900   58                 1018.2
NEW CANAL        1900   52 56   30/ 13/ 16 1020.0
SHELL BEACH      1900   52 58   10/ 14/ 16 1019.0

OFFSHORE STATIONS

STATION/POSITION TIME  TEMP    WIND        PRES    WAVE
                       AIR SEA DIR/SP/G            HT/PER
                 (UTC) (F)     (DEG/KT/KT) (MB)    (FT/S)
64 S DAUPHIN ISL 1900   64 74   60/ 21/ 25 1016.2    8/ 7

$$




USA.gov is the U.S. government's official web portal to all federal, state and local government web resources and services.